Погода в Нюрбе

Погода в Нюрбе : погода сейчас, прогноз погоды и архив. Всё, что Вы хотите узнать о погоде в Нюрбе!

Хотите узнать прогноз погоды в Нюрбе? Тогда Вам сюда: Погода в Нюрбе

Поиск расширенной информации на нашем сайте:

Другие новости

Новости СМИ2

Главная страница сайта

Новости сайта

03.07.2017

Напоминаем, что на нашем специализированном сайте Метеоцентр.Азия вы можете получить высокодетализированные автоматические прогнозы погоды по пунктам России, СНГ и мира в авиационном формате (включающие направление и скорость ветра, видимость, явления погоды, количество и форму облачности, нижнюю и верхнюю границу облачности).

Рекомендуем: Лечебное голодание

Погода в Нюрбе - сегодня

Время (UTC), дата Ветер
(°,м/с) 
Видим.   Явления Облачность Т
(°С)
Тd
(°С)
f(%) Тe
(°С)
Pmin
(гПа)
dP
(гПа)
Po
(мм)
O2
(г/м3)
Тmin Tmax R s Состояние
почвы
12 19.04.18 250 (З) 3{13}  20000 м    3/0 средняя 
[Ac trans]
-0.2 -11.4 43 -2  1007.5  2.3  744  301    +2.9  0.0     
15 19.04.18 240 (ЮЗ) 20000 м    ясно 
-2.5 -10.8 53 -5  1009.6  1.9  746  304           
18 19.04.18 240 (ЮЗ) 20000 м    ясно 
-5.2 -10.6 66 -8  1010.6  0.9  747  308           
21 19.04.18 220 (ЮЗ) 20000 м    ясно 
-6.9 -12.1 66 -10  1012.2  1.4  748  310           
00 20.04.18 230 (ЮЗ) 20000 м    8/0 верхняя 
[Ci fib]
-3.5 -13.1 47 -7  1013.1  1.1  748  307  -7.2      мокрый или
старый снег
10-40% 
03 20.04.18 230 (ЮЗ) 20000 м    8/4 600 м верхняя 
[Cu med, cong|Ci fib]
-1.3 -13 41 -5  1013.6  0.6  749  304           
09 20.04.18 250 (З) 5{12}  20000 м    10/5 600 м средняя, верхняя 
[Sc|Ac trans|Ci fib]
-1 -11.8 44 -4  1015.7  1.3  750  305           
12 20.04.18 260 (З) 20000 м    10/3 600 м средняя, верхняя 
[Sc|Ac trans|Ci fib]
-2.2 -11.9 47 -5  1017  751  306    -0.2       
15 20.04.18 230 (ЮЗ) 20000 м    8/0 средняя, верхняя 
[Ac trans|Ci fib]
-5.2 -12 59 -7  1017.9  0.7  752  310           
18 20.04.18 220 (ЮЗ) 20000 м    8/0 средняя, верхняя 
[Ac trans|Ci fib]
-5.2 -11.6 61 -7  1018.1  0.2  752  310           
21 20.04.18 240 (ЮЗ) 20000 м    5/0 верхняя 
[Ci fib]
-7.7 -12.7 67 -9  1018.4  0.2  752  313           
00 21.04.18 240 (ЮЗ) 20000 м    8/0 верхняя 
[Ci fib]
-3.4 -12.4 50 -6  1018.6  0.4  752  308  -7.7      мокрый или
старый снег
10-40% 
03 21.04.18 230 (ЮЗ) 20000 м    8/5 600 м верхняя 
[Cu med, cong|Ci fib]
+1.7 -13.8 31 -1  1018  -0.3  752  302           
06 21.04.18 240 (ЮЗ) 5{11}  20000 м    10/5 600 м средняя 
[Sc|Ac und]
+2.8 -13.4 29 1017.9  752  301           
09 21.04.18 240 (ЮЗ) 20000 м    6/5 600 м верхняя 
[Cu Sc|Ci fib]
+3.7 -12.7 29 +2  1017.4  -0.5  752  300           
12 21.04.18 200 (Ю) 20000 м    6/0 средняя, верхняя 
[Ac trans|Ci fib]
+2.1 -8 47 +1  1017.9  0.5  752  302    +4.5       
15 21.04.18 200 (Ю) 20000 м    8/0 средняя, верхняя 
[Ac trans|Ci fib]
+0.3 -9 50 -1  1017.3  -0.7  752  303           
18 21.04.18 200 (Ю) 20000 м    8/0 средняя, верхняя 
[Ac trans|Ci fib]
-0.5 -10.4 47 -2  1016.6  -0.8  751  304           
21 21.04.18 200 (Ю) 20000 м    10/0 средняя, верхняя 
[Ac trans|Ci fib]
-0.5 -10.4 47 -2  1015.3  -1.3  750  304           
00 22.04.18 200 (Ю) 20000 м    10/0 средняя, верхняя 
[As trans|Cs]
+3.1 -9.3 40 +1  1013.2  -1.9  749  299  -0.9      мокрый или
старый снег
10-40% 
03 22.04.18 210 (ЮЗ) 20000 м    10/0 средняя, верхняя 
[As trans|Cs]
+6.5 -8 35 +5  1011.1  -1.8  747  295           
15 22.04.18 190 (Ю) 20000 м    10/4 600 м средняя 
[Sc|As op]
+6.3 -0.8 60 +5  1009.2  746  294           
18 22.04.18 200 (Ю) 20000 м    10/4 600 м средняя 
[Sc|As op]
+6.2 -0.6 62 +5  1008.1  -1.1  745  294           
21 22.04.18 200 (Ю) 20000 м    10/4 600 м средняя 
[Sc|As op]
+5.9 -0.7 63 +5  1006.9  -1.1  744  294           
00 23.04.18 210 (ЮЗ) 20000 м    6/0 средняя, верхняя 
[Ac trans|Ci fib]
+9.1 -0.5 51 +8  1004.7  -2.1  743  290  +5.9      мокрый или
старый снег
10-40% 
Время (UTC), дата Ветер
(°,м/с) 
Видим.   Явления Облачность Т
(°С)
Тd
(°С)
f(%) Тe
(°С)
Pmin
(гПа)
dP
(гПа)
Po
(мм)
O2
(г/м3)
Тmin Tmax R s Состояние
почвы

Для получения пояснительной информации подведите курсор к названию столбца.

ПОГОДА в Нюрбе - архив

Всё, что Вы хотите узнать о погоде в Нюрбе - удобно и подробно!

Выберите нужную дату (начиная с 1 января 2015* года) и нажмите кнопку "Найти".
Будут отображены архивные сводки погоды по пункту Нюрба, начиная с указанной даты.


Отображать данные в формате CSV (для использования в таблицах Excel)


Внимание! Наш архив погоды предназначен исключительно для личного некоммерческого использования в познавательных целях. Если Вам необходимы официальные справки о состоянии погоды (для производственных, юридических, коммерческих и т.п. целей), обращайтесь в органы Росгидромета.

*Примечание: данная дата относится к архиву по метеостанциям СССР (Россия, СНГ, Балтия).
Архив по метеостанциям Зарубежной Европы и Азии (кроме Китая) хранится 10 дней, по другим регионам земного шара (Китай, Африка, Америка, Австралия, Океания) - 1 день.

Нюрба - район местоположения метеостанции


Название, широта, долгота, высота метеостанции:
Нюрба 63.3°ш. 118.3°д. 119 м над ур. моря [Российская Федерация]

Дополнительная информация

В oтличие oт бoльшинства пoгoдных сайтoв мы публикуем пoдрoбную метеoинфoрмацию в детальнoм прoфессиoнальнoм фoрмате.

Характеристики температуры и влажнoсти вoздуха измеряются на высoте 2 м в тени вдали oт зданий и деревьев.
Скoрoсть ветра измеряется на высoте 10 м (на урoвне рoста челoвека скoрoсть ветра ниже в 1.5-2 раза). Если метеoстанция нахoдится в гoрoде или в лесу, тo скoрoсть ветра занижена на 2-4 м/с пo сравнению с oткрытым местoм. Скoрoсть ветра над акватoриями крупных рек и oзёр, а также на вершинах хoлмoв на 2-5 м/с выше, чем в oбычных услoвиях.
Атмoсфернoе давление в разных тoчках местнoсти мoжет значительнo oтличаться oт давления на метеoстанции, в зависимoсти oт услoвий рельефа (при пoдъёме на 10 м давление пoнижается примернo на 1 мм рт.ст.).